Location: Camp at the Woods
(43.2055°N, 93.0905°W)
Time: 18:27:07
(UTC+00:00)

Cosmos 2322 - Visible Passes

Search period start: 26 May 2024 00:00
Search period end: 05 June 2024 00:00
Orbit: 839 x 855 km, 71.0° (Epoch: 25 May)

Date Brightness Start Highest point End Pass type
(mag) Time Alt. Az. Time Alt. Az. Time Alt. Az.
26 May 6.0 07:48:52 10° N 07:53:20 23° NE 07:57:46 10° ESE visible
26 May 3.7 09:32:20 10° NNW 09:37:58 63° WSW 09:43:33 10° S visible
27 May 6.0 07:35:25 10° N 07:39:51 22° NE 07:44:14 10° E visible
27 May 3.7 09:18:52 10° NNW 09:24:30 64° WSW 09:30:05 10° S visible
28 May 6.0 07:22:00 10° N 07:26:22 22° NE 07:30:42 10° E visible
28 May 3.7 09:05:24 10° NNW 09:11:02 66° WSW 09:16:38 10° SSE visible
29 May 6.0 07:08:33 10° N 07:12:53 22° NE 07:17:11 10° E visible
29 May 3.7 08:51:55 10° NNW 08:57:35 67° WSW 09:03:11 10° SSE visible
30 May 6.0 06:55:07 10° N 06:59:24 21° NE 07:03:39 10° E visible
30 May 3.6 08:38:27 10° NNW 08:44:07 69° WSW 08:49:44 10° SSE visible
31 May 6.0 06:41:41 10° N 06:45:55 21° NE 06:50:07 10° E visible
31 May 3.6 08:25:00 10° NNW 08:30:39 71° WSW 08:35:40 13° SSE visible
01 Jun 5.9 06:28:15 10° N 06:32:26 20° NE 06:36:36 10° E visible
01 Jun 3.6 08:11:31 10° NNW 08:17:12 72° WSW 08:21:12 20° SSE visible
02 Jun 5.9 06:14:49 10° N 06:18:57 20° NE 06:23:04 10° E visible
02 Jun 3.6 07:58:03 10° NNW 08:03:45 74° WSW 08:06:59 26° SSE visible
03 Jun 5.9 06:01:23 10° N 06:05:28 20° NE 06:09:32 10° E visible
03 Jun 3.6 07:44:35 10° NNW 07:50:17 75° WSW 07:52:57 32° S visible
04 Jun 5.9 05:47:57 10° N 05:52:00 19° NE 05:56:00 10° E visible
04 Jun 3.6 07:31:07 10° NNW 07:36:49 77° WSW 07:39:03 38° S visible
